EW1268 Weather Reports


Display with metric or nautical units.
time (UTC)temp
F
wind
direction
speed
MPH
gust
MPH
rain 1hr
in
rain 24hr
in
rain mn
in
humidity
%
barometer
mb
20260906183034 82 187 4.0 11.0 0.51 0.52 0.51 87 1014.5
20260906182513 86 178 3.0 10.0 0.31 0.32 0.31 84 1014.6
20260906182019 89 188 1.0 8.0 0.03 0.04 0.03 78 1014.3
20260906181513 91 282 2.0 4.0 0.00 0.01 0.00 73 1013.9
20260906181010 92 178 1.0 5.0 0.00 0.01 0.00 74 1013.7
20260906180508 92 153 2.0 5.0 0.00 0.01 0.00 74 1013.7
20260906180015 92 107 1.0 4.0 0.00 0.01 0.00 74 1013.5
20260906175508 92 298 1.0 6.0 0.00 0.01 0.00 74 1013.6
20260906175008 92 17 2.0 6.0 0.00 0.01 0.00 77 1013.6
20260906174516 91 15 2.0 5.0 0.00 0.01 0.00 78 1013.7
20260906174008 91 41 1.0 6.0 0.00 0.01 0.00 78 1013.8
20260906173505 91 9 2.0 6.0 0.00 0.01 0.00 76 1013.7
20260906173014 91 272 2.0 5.0 0.00 0.01 0.00 78 1013.8
20260906172508 91 211 2.0 5.0 0.00 0.01 0.00 76 1013.9
20260906172009 91 221 2.0 7.0 0.00 0.01 0.00 78 1013.9
20260906171516 90 146 2.0 7.0 0.00 0.01 0.00 80 1014.1
20260906171010 89 196 1.0 7.0 0.00 0.01 0.00 79 1014.2
20260906170508 90 259 2.0 9.0 0.00 0.01 0.00 78 1014.2
20260906170009 91 247 2.0 9.0 0.00 0.01 0.00 79 1014.1
20260906165507 90 205 1.0 9.0 0.00 0.01 0.00 78 1014.1
20260906165010 91 109 2.0 9.0 0.00 0.01 0.00 81 1014.1
20260906164514 90 247 1.0 6.0 0.00 0.01 0.00 82 1014.0
20260906164011 89 65 2.0 6.0 0.00 0.01 0.00 83 1014.1
20260906163510 89 44 1.0 4.0 0.00 0.01 0.00 85 1014.2
20260906163023 88 119 2.0 6.0 0.00 0.01 0.00 85 1014.1
20260906162511 87 88 2.0 6.0 0.00 0.01 0.00 86 1014.2
20260906162006 87 111 2.0 6.0 0.00 0.01 0.00 87 1014.3
20260906161513 86 157 1.0 4.0 0.00 0.01 0.00 87 1014.2
20260906161007 86 153 1.0 5.0 0.00 0.01 0.00 88 1014.1
20260906160511 85 61 2.0 5.0 0.00 0.01 0.00 86 1014.2
20260906160019 85 72 2.0 5.0 0.00 0.01 0.00 85 1014.2
20260906155515 85 98 2.0 5.0 0.00 0.01 0.00 85 1014.1
20260906155009 85 99 2.0 4.0 0.00 0.01 0.00 86 1014.1
20260906154516 85 161 1.0 4.0 0.00 0.01 0.00 87 1014.1
20260906154005 85 76 2.0 4.0 0.00 0.01 0.00 87 1014.2
20260906153508 85 56 1.0 3.0 0.00 0.01 0.00 87 1014.2
20260906153024 84 51 0.0 2.0 0.00 0.01 0.00 86 1014.1
20260906152510 84 34 0.0 3.0 0.00 0.01 0.00 87 1014.1
20260906152012 84 325 1.0 3.0 0.00 0.01 0.00 87 1014.1
20260906151519 84 282 1.0 4.0 0.00 0.01 0.00 86 1014.0
20260906151016 84 284 1.0 4.0 0.00 0.01 0.00 86 1014.0
20260906150512 84 295 1.0 2.0 0.00 0.01 0.00 87 1014.0
20260906150010 84 316 1.0 2.0 0.00 0.01 0.00 87 1014.0
20260906145508 85 9 0.0 2.0 0.00 0.01 0.00 88 1014.0
20260906145011 85 34 0.0 2.0 0.00 0.01 0.00 88 1014.0
20260906144520 85 137 0.0 2.0 0.00 0.01 0.00 88 1014.0
20260906144011 85 137 1.0 5.0 0.00 0.01 0.00 88 1014.1
20260906143516 85 221 1.0 5.0 0.00 0.01 0.00 89 1014.1
20260906143022 85 161 2.0 5.0 0.00 0.01 0.00 90 1014.1
20260906142512 84 309 1.0 4.0 0.00 0.01 0.00 91 1014.0
20260906142009 84 232 1.0 4.0 0.00 0.01 0.00 92 1014.0
20260906141522 83 309 0.0 4.0 0.00 0.01 0.00 93 1014.0
20260906141012 83 93 1.0 3.0 0.00 0.01 0.00 93 1013.9
20260906140509 82 344 1.0 3.0 0.00 0.01 0.00 93 1014.0
20260906140019 82 221 1.0 3.0 0.00 0.01 0.00 94 1014.0
20260906135513 81 137 0.0 3.0 0.00 0.01 0.00 94 1014.0
20260906135012 81 137 1.0 4.0 0.00 0.01 0.00 95 1013.9
20260906134518 81 137 1.0 4.0 0.00 0.01 0.00 95 1013.8
20260906134012 80 167 1.0 4.0 0.00 0.01 0.00 95 1013.8
20260906133508 80 170 0.0 4.0 0.00 0.01 0.00 95 1013.8
20260906133019 80 119 0.0 4.0 0.00 0.01 0.00 95 1013.8
20260906132510 80 190 1.0 5.0 0.00 0.01 0.00 95 1013.8
20260906132012 80 178 1.0 5.0 0.00 0.01 0.00 95 1013.7
20260906131522 79 146 1.0 4.0 0.00 0.01 0.00 95 1013.6
20260906131012 79 234 1.0 4.0 0.00 0.01 0.00 95 1013.6
20260906130513 79 190 1.0 4.0 0.00 0.01 0.00 95 1013.5
20260906130012 79 153 1.0 2.0 0.00 0.01 0.00 95 1013.5
20260906125511 78 178 0.0 2.0 0.00 0.01 0.00 95 1013.5
20260906125012 78 93 0.0 1.0 0.00 0.01 0.00 94 1013.4
20260906124530 78 51 0.0 1.0 0.00 0.01 0.00 94 1013.4
20260906124010 78 93 0.0 1.0 0.00 0.01 0.00 94 1013.4
20260906123511 78 51 0.0 1.0 0.00 0.01 0.00 94 1013.4
20260906123033 78 153 0.0 2.0 0.00 0.01 0.00 94 1013.3
20260906122516 78 111 0.0 2.0 0.00 0.01 0.00 94 1013.2
20260906122014 78 126 1.0 2.0 0.00 0.01 0.00 94 1013.1
20260906121515 78 137 0.0 2.0 0.00 0.01 0.00 94 1012.9
20260906121011 78 93 0.0 2.0 0.00 0.01 0.00 94 1012.9
20260906120520 78 58 0.0 2.0 0.00 0.01 0.00 94 1012.8
20260906120024 78 67 1.0 2.0 0.00 0.01 0.00 94 1012.7
20260906115513 78 93 1.0 2.0 0.00 0.01 0.00 94 1012.5
20260906115013 78 61 1.0 2.0 0.00 0.01 0.00 94 1012.5
20260906114526 79 93 0.0 2.0 0.00 0.01 0.00 94 1012.5
20260906114012 79 111 0.0 2.0 0.00 0.01 0.00 94 1012.5
20260906113512 79 111 0.0 2.0 0.00 0.01 0.00 94 1012.4
20260906113020 79 76 0.0 2.0 0.00 0.01 0.00 94 1012.4
20260906112511 79 153 0.0 2.0 0.00 0.01 0.00 94 1012.3
20260906112014 79 107 1.0 2.0 0.00 0.01 0.00 94 1012.3
20260906111523 79 119 1.0 2.0 0.00 0.01 0.00 94 1012.3
20260906111014 79 93 0.0 2.0 0.00 0.01 0.00 93 1012.3
20260906110512 79 93 1.0 2.0 0.00 0.01 0.00 93 1012.3
20260906110026 79 93 0.0 1.0 0.00 0.01 0.00 93 1012.4
20260906105509 79 76 0.0 1.0 0.00 0.01 0.00 93 1012.4
20260906105014 79 93 0.0 2.0 0.00 0.01 0.00 93 1012.4
20260906104524 79 119 0.0 2.0 0.00 0.01 0.00 93 1012.4
20260906104014 79 34 0.0 2.0 0.00 0.01 0.00 93 1012.3
20260906103512 79 51 0.0 2.0 0.00 0.01 0.00 93 1012.3
20260906103040 79 76 0.0 1.0 0.00 0.01 0.00 93 1012.3
20260906102520 79 67 0.0 1.0 0.00 0.01 0.00 93 1012.3
20260906102015 79 119 0.0 2.0 0.00 0.01 0.00 93 1012.2
20260906101519 79 178 0.0 2.0 0.00 0.01 0.00 93 1012.2
20260906101016 79 76 0.0 2.0 0.00 0.01 0.00 93 1012.3
20260906100514 79 143 0.0 2.0 0.00 0.01 0.00 93 1012.1
20260906100028 79 119 0.0 2.0 0.00 0.01 0.00 92 1012.0
20260906095511 80 105 1.0 2.0 0.00 0.01 0.00 92 1012.0
20260906095005 80 93 1.0 2.0 0.00 0.01 0.00 92 1012.0
20260906094508 80 93 0.0 2.0 0.00 0.01 0.00 92 1011.9
20260906094006 80 93 0.0 2.0 0.00 0.01 0.00 92 1011.9
20260906093508 80 93 0.0 2.0 0.00 0.01 0.00 92 1011.9
20260906093019 80 93 0.0 2.0 0.00 0.01 0.00 92 1011.8
20260906092516 80 51 0.0 1.0 0.00 0.01 0.00 92 1011.8
20260906092014 80 51 0.0 1.0 0.00 0.01 0.00 92 1011.8
20260906091523 80 51 0.0 2.0 0.00 0.01 0.00 92 1011.9
20260906091004 80 93 0.0 2.0 0.00 0.01 0.00 92 1011.8
20260906090507 80 93 0.0 2.0 0.00 0.01 0.00 92 1011.8
20260906090014 80 67 0.0 1.0 0.00 0.01 0.00 92 1012.0
20260906085512 80 76 0.0 2.0 0.00 0.01 0.00 92 1011.8
20260906085011 80 93 0.0 2.0 0.00 0.01 0.00 91 1011.8
20260906084525 80 51 0.0 2.0 0.00 0.01 0.00 91 1011.7
20260906084020 80 93 0.0 2.0 0.00 0.01 0.00 91 1011.7
20260906083514 80 67 0.0 4.0 0.00 0.01 0.00 91 1011.8
20260906083009 80 165 1.0 4.0 0.00 0.01 0.00 91 1011.8
20260906082507 80 178 0.0 2.0 0.00 0.01 0.00 91 1011.7
20260906082008 80 161 0.0 2.0 0.00 0.01 0.00 91 1011.8
20260906081518 81 137 0.0 3.0 0.00 0.01 0.00 91 1011.8
20260906081011 81 196 0.0 3.0 0.00 0.01 0.00 91 1011.8
20260906080514 81 165 1.0 2.0 0.00 0.01 0.00 91 1011.9
20260906080030 81 178 1.0 2.0 0.00 0.01 0.00 91 1011.9
20260906075514 81 137 0.0 2.0 0.00 0.01 0.00 91 1011.9
20260906075004 81 93 0.0 2.0 0.00 0.01 0.00 91 1011.9
20260906074511 81 168 1.0 3.0 0.00 0.01 0.00 91 1011.9
20260906074011 81 165 1.0 3.0 0.00 0.01 0.00 91 1011.9
20260906073516 81 196 1.0 2.0 0.00 0.01 0.00 91 1012.0
20260906073024 81 178 0.0 2.0 0.00 0.01 0.00 91 1012.1
20260906072515 81 265 0.0 2.0 0.00 0.01 0.00 91 1012.1
20260906072018 81 309 0.0 2.0 0.00 0.01 0.00 91 1012.1
20260906071527 81 265 0.0 4.0 0.00 0.01 0.00 91 1012.2
20260906071007 81 265 1.0 4.0 0.00 0.01 0.00 91 1012.2
20260906070507 81 279 0.0 3.0 0.00 0.01 0.00 91 1012.2
20260906070015 81 238 0.0 3.0 0.00 0.01 0.00 91 1012.3
20260906065515 81 205 0.0 4.0 0.00 0.01 0.00 91 1012.4
20260906065015 81 153 1.0 4.0 0.00 0.01 0.00 91 1012.5
20260906064534 81 9 0.0 4.0 0.00 0.01 0.00 91 1012.5
20260906064016 81 157 1.0 3.0 0.00 0.01 0.00 91 1012.5
20260906063517 81 51 1.0 4.0 0.00 0.01 0.00 91 1012.5
20260906063028 81 144 0.0 4.0 0.00 0.01 0.00 91 1012.4
20260906062507 81 168 1.0 3.0 0.00 0.01 0.00 91 1012.4
20260906062011 81 51 0.0 3.0 0.00 0.01 0.00 91 1012.5
20260906061525 81 165 1.0 4.0 0.00 0.01 0.00 90 1012.4
20260906061013 81 178 1.0 4.0 0.00 0.01 0.00 90 1012.3
20260906060516 81 161 0.0 4.0 0.00 0.01 0.00 90 1012.4
20260906060029 81 153 0.0 5.0 0.00 0.01 0.00 90 1012.4
20260906055518 81 178 1.0 5.0 0.00 0.01 0.00 90 1012.3
20260906055014 81 171 1.0 7.0 0.00 0.01 0.00 90 1012.3
20260906054525 81 153 2.0 7.0 0.00 0.01 0.00 90 1012.2
20260906054009 81 209 1.0 6.0 0.00 0.01 0.00 90 1012.3
20260906053516 81 178 3.0 6.0 0.00 0.01 0.00 90 1012.3
20260906053024 81 170 2.0 6.0 0.00 0.01 0.00 90 1012.2
20260906052516 81 173 1.0 5.0 0.00 0.01 0.00 90 1012.4
20260906052016 81 178 1.0 5.0 0.00 0.01 0.00 90 1012.4
20260906051527 81 168 2.0 5.0 0.00 0.01 0.00 90 1012.5
20260906051018 81 225 2.0 5.0 0.00 0.01 0.00 90 1012.5
20260906050514 81 173 2.0 5.0 0.00 0.01 0.00 90 1012.5
20260906050019 81 161 2.0 7.0 0.00 0.01 0.00 90 1012.5
20260906045514 81 193 2.0 7.0 0.00 0.01 0.01 90 1012.6
20260906045013 81 178 1.0 5.0 0.00 0.01 0.01 90 1012.6
20260906044529 82 51 1.0 6.0 0.00 0.01 0.01 89 1012.6
20260906044018 82 131 1.0 6.0 0.00 0.01 0.01 89 1012.6
20260906043514 82 178 1.0 7.0 0.00 0.01 0.01 89 1012.6
20260906043028 82 191 3.0 7.0 0.00 0.01 0.01 89 1012.5
20260906042510 82 192 3.0 8.0 0.00 0.01 0.01 89 1012.5
20260906042014 82 173 3.0 8.0 0.00 0.01 0.01 89 1012.5
20260906041523 82 137 3.0 6.0 0.00 0.01 0.01 89 1012.5
20260906041013 82 200 1.0 7.0 0.00 0.01 0.01 89 1012.6
20260906040514 82 205 2.0 7.0 0.00 0.01 0.01 89 1012.6
20260906040030 82 178 2.0 6.0 0.00 0.01 0.01 89 1012.6
20260906035515 82 146 2.0 5.0 0.00 0.01 0.01 88 1012.7
20260906035017 82 165 1.0 6.0 0.00 0.01 0.01 88 1012.7
20260906034516 82 161 1.0 9.0 0.00 0.01 0.01 88 1012.6
20260906034010 82 150 1.0 9.0 0.00 0.01 0.01 88 1012.6
20260906033512 82 173 1.0 6.0 0.00 0.01 0.01 88 1012.7
20260906033027 82 200 1.0 6.0 0.00 0.01 0.01 88 1012.6
20260906032515 82 93 1.0 6.0 0.00 0.01 0.01 88 1012.6
20260906032019 82 193 2.0 6.0 0.00 0.01 0.01 88 1012.6
20260906031529 82 146 1.0 5.0 0.00 0.01 0.01 87 1012.5
20260906031020 82 93 1.0 5.0 0.00 0.01 0.01 87 1012.5
20260906030510 82 170 2.0 6.0 0.00 0.01 0.01 87 1012.4
20260906030020 82 188 2.0 7.0 0.00 0.01 0.01 87 1012.4
20260906025519 83 175 3.0 7.0 0.00 0.01 0.01 87 1012.2
20260906025016 83 171 3.0 8.0 0.00 0.01 0.01 87 1012.3
20260906024530 83 194 4.0 8.0 0.00 0.01 0.01 87 1012.3
20260906024003 83 196 2.0 7.0 0.00 0.01 0.01 87 1012.2
20260906023507 83 159 1.0 6.0 0.00 0.01 0.01 88 1012.1
20260906023011 83 198 2.0 6.0 0.00 0.01 0.01 88 1012.0
20260906022508 83 144 2.0 5.0 0.00 0.01 0.01 88 1011.9
20260906022012 83 163 1.0 4.0 0.00 0.01 0.01 88 1011.9
20260906021536 83 161 1.0 6.0 0.00 0.01 0.01 88 1011.8
20260906021015 83 143 1.0 6.0 0.00 0.01 0.01 88 1011.8
20260906020520 83 159 2.0 5.0 0.00 0.01 0.01 88 1011.6
20260906020011 83 148 0.0 3.0 0.00 0.01 0.01 88 1011.6
20260906015507 83 157 0.0 4.0 0.00 0.01 0.01 88 1011.4
20260906015009 83 126 1.0 4.0 0.00 0.01 0.01 88 1011.4
20260906014520 83 143 1.0 4.0 0.00 0.01 0.01 88 1011.4
20260906014009 83 178 1.0 4.0 0.00 0.01 0.01 88 1011.3
20260906013512 83 51 0.0 4.0 0.00 0.01 0.01 88 1011.4
20260906013038 83 93 0.0 4.0 0.00 0.01 0.01 88 1011.4
20260906012519 83 131 1.0 4.0 0.00 0.01 0.01 88 1011.3
20260906012006 83 146 1.0 2.0 0.00 0.01 0.01 88 1011.2
20260906011508 84 137 0.0 2.0 0.00 0.01 0.01 87 1011.2
20260906011009 84 9 0.0 2.0 0.00 0.01 0.01 88 1011.1
20260906010509 84 93 0.0 2.0 0.00 0.01 0.01 88 1011.1
20260906010023 84 67 0.0 2.0 0.00 0.01 0.01 88 1011.2
20260906005512 84 51 0.0 1.0 0.00 0.01 0.01 87 1011.2
20260906005016 85 93 0.0 2.0 0.00 0.01 0.01 87 1011.1
20260906004530 85 93 0.0 2.0 0.00 0.01 0.01 87 1011.2
20260906004006 85 93 0.0 2.0 0.00 0.01 0.01 87 1011.2
20260906003506 85 51 0.0 1.0 0.00 0.01 0.01 87 1011.2
20260906003020 85 126 0.0 1.0 0.00 0.01 0.01 86 1011.2
20260906002511 85 93 0.0 2.0 0.00 0.01 0.01 86 1011.3
20260906002013 85 67 0.0 2.0 0.00 0.01 0.01 86 1011.4
20260906001525 85 93 0.0 2.0 0.00 0.01 0.01 86 1011.4
20260906001015 86 51 0.0 1.0 0.00 0.01 0.01 85 1011.4
20260906000514 86 9 0.0 2.0 0.00 0.01 0.01 85 1011.4
20260906000030 86 34 0.0 2.0 0.00 0.01 0.01 84 1011.4
20260905235509 86 9 0.0 2.0 0.00 0.01 0.01 84 1011.5
20260905235009 87 51 0.0 3.0 0.00 0.01 0.01 84 1011.5
20260905234519 87 93 1.0 3.0 0.00 0.01 0.01 83 1011.5
20260905234014 87 107 1.0 2.0 0.00 0.01 0.01 83 1011.5
20260905233517 87 63 1.0 2.0 0.00 0.01 0.01 83 1011.6
20260905233029 87 67 0.0 5.0 0.00 0.01 0.01 83 1011.6
20260905232520 87 67 0.0 5.0 0.00 0.01 0.01 83 1011.7
20260905232018 87 93 1.0 4.0 0.00 0.01 0.01 83 1011.6
20260905231512 87 165 1.0 3.0 0.00 0.01 0.01 84 1011.5
20260905231007 87 103 1.0 3.0 0.00 0.01 0.01 85 1011.5
20260905230511 87 153 1.0 5.0 0.00 0.01 0.01 86 1011.5
20260905230023 86 205 1.0 5.0 0.00 0.01 0.01 87 1011.5
20260905225514 86 80 1.0 3.0 0.00 0.01 0.01 87 1011.5
20260905225015 86 63 1.0 3.0 0.00 0.01 0.01 87 1011.4
20260905224532 86 105 1.0 3.0 0.00 0.01 0.01 87 1011.2
20260905224018 86 119 0.0 3.0 0.00 0.01 0.01 87 1011.2
20260905223510 85 107 1.0 4.0 0.00 0.01 0.01 87 1011.2
20260905223018 85 157 1.0 4.0 0.00 0.01 0.01 87 1011.2
20260905222510 85 111 0.0 3.0 0.00 0.01 0.01 87 1011.2
20260905222011 85 115 1.0 5.0 0.01 0.01 0.01 87 1011.2
20260905221524 85 178 1.0 5.0 0.01 0.01 0.01 87 1011.2
20260905221017 84 155 2.0 5.0 0.01 0.01 0.01 87 1011.2
20260905220514 84 178 1.0 4.0 0.01 0.01 0.01 88 1011.4
20260905220033 84 103 1.0 4.0 0.01 0.01 0.01 88 1011.3
20260905215509 84 136 0.0 4.0 0.01 0.01 0.01 88 1011.2
20260905215010 84 58 1.0 6.0 0.01 0.01 0.01 87 1011.3
20260905214522 84 178 2.0 6.0 0.01 0.01 0.01 87 1011.3
20260905214013 84 51 1.0 5.0 0.01 0.01 0.01 86 1011.3
20260905213516 84 153 2.0 6.0 0.01 0.01 0.01 85 1011.3
20260905213031 85 165 2.0 10.0 0.01 0.01 0.01 83 1011.5
20260905212517 85 169 2.0 11.0 0.01 0.01 0.01 82 1011.8
20260905212014 87 205 1.0 12.0 0.00 0.00 0.00 80 1012.1
20260905211515 88 175 4.0 12.0 0.00 0.00 0.00 78 1012.1
20260905211008 90 169 4.0 9.0 0.00 0.00 0.00 76 1012.1
20260905210512 91 145 4.0 9.0 0.00 0.00 0.00 72 1012.0
20260905210025 92 167 4.0 13.0 0.00 0.00 0.00 70 1011.9
20260905205517 93 175 4.0 15.0 0.00 0.00 0.00 70 1011.5
20260905205016 94 197 7.0 15.0 0.00 0.00 0.00 69 1011.5
20260905204531 95 138 4.0 12.0 0.00 0.00 0.00 69 1011.6
20260905204019 95 93 3.0 12.0 0.00 0.00 0.00 70 1011.5
20260905203509 94 191 2.0 9.0 0.00 0.00 0.00 71 1011.4
20260905203018 93 178 3.0 7.0 0.00 0.00 0.00 73 1011.5
20260905202512 93 148 3.0 7.0 0.00 0.00 0.00 70 1011.5
20260905202013 93 153 3.0 7.0 0.00 0.00 0.00 69 1011.7
20260905201531 94 72 2.0 11.0 0.00 0.00 0.00 67 1011.7
20260905201016 95 164 4.0 14.0 0.00 0.00 0.00 64 1011.7
20260905200520 97 143 7.0 14.0 0.00 0.00 0.00 61 1011.8
20260905200035 98 187 1.0 5.0 0.00 0.00 0.00 61 1011.7
20260905195512 98 93 1.0 8.0 0.00 0.00 0.00 62 1011.7
20260905195011 98 265 3.0 12.0 0.00 0.00 0.00 58 1011.9
20260905194524 99 193 5.0 12.0 0.00 0.00 0.00 57 1011.9
20260905194014 100 129 4.0 7.0 0.00 0.00 0.00 57 1011.8
20260905193521 100 9 1.0 6.0 0.00 0.00 0.00 60 1011.9
20260905193033 100 103 2.0 6.0 0.00 0.00 0.00 60 1011.9
20260905192517 101 133 2.0 9.0 0.00 0.00 0.00 57 1012.0
20260905192017 101 188 4.0 9.0 0.00 0.00 0.00 59 1011.9
20260905191515 100 150 2.0 8.0 0.00 0.01 0.00 64 1012.0
20260905191012 99 238 1.0 6.0 0.00 0.01 0.00 64 1012.0
20260905190514 98 67 1.0 5.0 0.00 0.01 0.00 63 1012.1
20260905190043 98 291 2.0 6.0 0.00 0.01 0.00 57 1012.2
20260905185514 98 163 1.0 6.0 0.00 0.01 0.00 64 1012.2
20260905185020 98 163 2.0 6.0 0.00 0.01 0.00 61 1012.3
20260905184537 99 22 1.0 6.0 0.00 0.01 0.00 60 1012.3
20260905184019 99 31 2.0 7.0 0.00 0.01 0.00 61 1012.4
20260905183510 98 211 3.0 7.0 0.00 0.01 0.00 63 1012.3